Theta_e
331 328 328 323 308 306 301 301 306 304 304 309 310 309 307 309 307 303 315 316 321 323 327 329 332 333 336 337 339 341 341 341 342 341 341 341 341 341 342 341 341 342 344 345 345 346 346 346 346
325 323 324 318 304 300 301 305 302 305 308 309 308 308 307 307 311 310 312 313 320 321 324 324 327 328 331 332 335 334 335 336 337 338 337 337 338 336 336 337 337 337 340 341 343 344 344 344 344
323 322 317 310 304 299 301 304 305 307 308 308 307 309 309 308 310 313 312 314 319 319 320 320 323 324 326 328 329 328 329 331 330 331 333 332 329 328 330 330 331 331 333 334 336 337 339 339 340
319 317 312 303 301 304 303 305 307 306 307 308 308 305 307 311 311 313 310 313 316 316 317 318 320 321 322 323 323 323 323 323 324 327 325 323 321 321 321 322 324 325 326 328 332 333 333 332 334
317 315 305 302 302 304 305 307 307 305 306 306 307 305 306 308 310 309 308 310 311 312 314 315 317 318 319 319 319 319 319 318 319 320 318 317 316 316 316 317 318 319 320 322 327 327 326 326 327
311 311 302 300 302 304 306 307 307 307 307 306 305 306 307 310 307 308 307 306 307 309 311 311 312 314 314 315 316 316 316 315 314 314 313 313 312 313 313 314 315 315 316 317 320 318 319 320 321
309 307 303 303 302 303 305 308 306 307 307 306 308 304 307 306 308 307 306 306 305 305 306 306 309 309 310 310 311 312 312 312 311 310 309 308 308 308 308 308 311 313 313 314 314 314 314 315 315
310 307 303 303 301 302 306 306 307 307 306 308 309 304 306 308 308 306 305 304 304 303 303 304 304 305 306 306 307 308 307 307 307 305 304 302 305 304 304 304 307 309 310 311 311 311 312 312 311
312 303 302 302 301 303 306 304 306 306 306 305 307 307 306 309 305 304 303 303 302 301 302 303 303 303 304 304 302 303 303 302 302 303 302 307 304 303 303 303 303 306 306 308 309 309 309 308 312
308 304 304 306 306 304 305 305 306 302 303 304 305 307 303 306 303 301 301 301 301 300 301 302 302 302 302 299 303 303 302 303 303 304 303 303 303 301 301 303 302 303 303 305 306 307 307 308 305
307 303 306 306 306 305 305 304 307 303 303 307 306 307 304 304 302 302 302 303 302 302 301 301 301 302 302 301 303 303 303 303 303 303 302 302 302 302 301 301 302 302 303 301 301 302 302 303 304
303 307 306 306 305 304 303 306 303 304 306 308 310 311 306 303 302 302 303 303 303 302 301 300 300 301 302 302 302 302 301 302 301 301 300 301 301 300 299 299 299 301 300 299 299 300 301 301 302
304 306 305 306 305 304 305 303 304 305 309 310 307 305 306 304 304 304 305 305 304 301 300 299 300 300 300 300 300 300 300 300 300 300 299 298 298 298 298 298 298 297 297 297 296 297 297 299 299
305 304 305 306 305 305 302 303 302 306 309 308 308 304 305 305 305 305 304 304 303 301 300 299 299 300 299 299 300 299 299 299 299 299 298 297 297 296 296 296 296 296 295 295 295 295 295 296 297
304 300 304 305 304 302 303 299 301 306 305 305 306 305 305 305 305 304 305 303 303 301 300 299 298 299 298 299 299 299 299 297 297 297 296 295 295 294 294 294 294 294 294 294 294 294 294 294 295
301 302 297 304 303 302 302 297 305 308 305 303 305 306 304 305 305 305 305 304 302 301 299 299 297 297 297 297 298 298 297 297 297 296 295 294 293 293 293 293 293 293 293 292 292 292 292 292 293
302 296 298 301 303 301 300 298 304 306 304 303 305 306 306 305 304 305 305 304 302 300 299 298 297 296 297 297 297 297 297 296 296 295 294 294 292 292 292 291 292 292 291 291 291 291 291 290 291
297 296 298 298 301 300 298 297 302 305 304 304 304 304 305 306 304 304 304 304 302 300 299 297 297 296 296 297 296 296 295 295 294 294 293 292 291 290 291 291 291 291 290 290 290 289 290 290 291
300 297 296 299 302 298 298 298 301 304 304 303 304 304 305 306 308 305 304 304 301 299 298 297 296 296 296 295 294 293 292 294 293 293 292 291 290 290 290 290 289 290 289 289 289 289 288 289 290
299 296 296 300 302 296 297 296 300 302 302 303 303 303 304 306 306 303 302 302 299 297 297 296 296 295 295 295 295 294 294 293 293 293 291 291 290 289 289 288 288 288 288 288 288 288 286 288 289
296 295 296 296 300 296 294 293 297 300 301 302 302 303 304 304 305 302 300 299 298 296 296 296 296 296 295 295 294 292 291 290 289 290 290 290 290 289 288 288 287 287 287 287 287 287 286 284 286
293 299 298 296 294 290 295 287 296 298 299 299 299 301 304 303 304 302 300 298 297 296 297 296 296 295 295 295 292 291 289 288 290 291 291 289 289 288 288 287 287 286 287 286 287 286 285 285 283
295 295 295 295 293 293 292 289 293 293 293 294 297 302 305 305 302 301 299 298 297 297 296 296 295 294 294 294 292 291 290 291 291 289 288 288 289 288 287 287 286 286 286 286 285 285 285 285 283
295 293 292 292 291 285 292 291 291 294 294 297 300 301 304 302 301 301 300 298 297 297 296 295 294 293 293 292 291 291 290 290 288 287 286 287 287 287 286 286 285 285 284 284 284 285 284 284 283
293 292 288 287 286 285 294 290 293 298 297 298 299 301 302 301 300 300 297 295 295 295 294 294 293 292 292 291 291 290 290 290 288 287 287 285 285 285 285 285 284 283 283 283 283 282 282 283 282
291 293 289 283 284 287 289 286 292 299 300 300 300 300 300 299 300 299 297 296 295 294 293 293 292 291 291 290 290 290 289 288 287 286 285 284 284 284 284 283 282 282 282 282 281 282 282 282 282
292 287 295 290 288 285 289 293 299 298 297 298 297 297 298 298 298 297 297 295 295 294 293 292 292 291 290 289 289 288 287 286 285 285 284 283 283 282 282 281 280 280 280 280 280 280 280 280 281
291 293 287 289 283 281 287 290 291 293 294 296 295 296 298 299 299 298 297 296 295 294 293 292 292 290 290 289 288 286 285 284 284 284 282 282 282 281 280 279 279 279 279 279 279 279 279 279 279
287 287 287 287 289 284 283 287 295 294 296 296 296 297 298 300 299 298 297 296 295 294 293 292 291 290 289 287 287 285 284 283 283 281 281 281 280 279 278 278 278 277 277 278 277 277 277 277 277
294 292 291 285 284 287 286 286 296 296 297 297 297 298 301 301 300 300 299 296 294 293 292 291 290 290 289 287 285 284 283 281 280 280 279 280 278 278 278 277 277 276 276 276 276 275 275 275 275
Wind_Speed
7 6 3 4 7 6 4 4 1 7 5 4 2 4 5 4 2 3 5 5 6 7 5 10 10 8 10 10 11 12 14 13 13 11 11 11 12 11 12 13 13 14 12 11 11 11 11 11 10
4 3 5 4 7 8 3 6 7 8 7 7 4 3 4 3 4 8 8 6 6 6 8 9 8 10 10 10 11 12 12 11 11 11 11 12 15 16 15 16 15 16 15 15 15 15 15 15 12
5 6 5 4 6 7 5 5 7 8 8 9 6 4 3 2 4 11 8 8 8 7 8 8 9 10 10 11 11 12 12 13 13 12 12 14 14 13 13 13 13 13 13 14 13 13 15 15 15
4 5 5 7 10 4 4 4 5 10 5 3 2 5 3 6 6 6 10 9 9 7 8 9 10 9 10 11 12 12 12 13 12 12 13 12 12 12 12 13 13 13 14 14 13 13 14 14 14
5 5 7 7 8 3 1 1 7 11 8 8 7 1 1 6 6 11 10 9 9 8 9 9 9 9 10 11 11 11 13 13 12 12 12 12 12 12 12 13 14 14 15 15 14 14 15 16 17
6 4 7 9 2 1 2 4 8 10 7 6 6 7 2 10 13 12 11 10 9 9 8 8 9 9 10 9 10 11 12 12 12 12 12 12 13 13 13 14 14 14 14 13 13 14 14 15 15
8 7 11 8 9 5 6 7 11 10 10 10 1 6 4 11 12 12 11 9 9 9 8 7 8 9 10 9 9 10 10 11 12 12 11 11 11 12 12 12 14 13 14 14 14 14 15 15 14
5 4 9 6 5 6 5 8 3 11 11 4 5 6 8 14 15 13 11 10 9 8 7 7 6 5 7 8 9 10 10 10 11 9 7 4 7 8 10 13 14 13 14 13 14 14 16 15 14
2 6 8 5 5 1 5 10 4 4 7 4 8 7 5 14 17 14 12 12 10 8 8 8 8 7 7 7 7 9 8 6 4 5 4 2 5 7 8 9 12 13 16 13 15 15 16 15 10
6 7 6 2 4 5 6 10 8 6 11 14 13 11 5 18 16 18 17 15 15 13 11 9 9 8 7 5 6 4 4 3 3 4 5 4 5 6 6 6 7 9 11 11 14 14 14 11 8
4 6 4 6 6 5 7 9 8 9 15 14 16 16 15 18 18 18 18 16 17 15 11 11 10 9 9 6 4 3 2 2 2 5 5 4 4 5 5 4 5 6 9 7 10 9 7 10 8
6 11 8 2 3 4 9 5 8 17 19 3 5 9 19 20 20 21 20 19 17 17 15 13 12 9 8 5 5 4 3 2 2 3 3 3 3 5 5 5 7 6 6 8 7 5 8 10 10
9 9 6 8 6 9 6 13 12 17 17 16 7 5 15 18 21 19 19 17 17 17 16 15 13 11 9 8 5 5 4 3 3 2 4 3 4 4 4 5 5 6 7 8 8 8 8 9 10
5 9 12 8 12 9 9 14 3 12 13 19 16 15 16 19 21 19 20 20 19 17 17 15 14 12 11 9 8 6 5 5 4 2 3 3 3 3 4 4 5 5 6 7 7 8 8 7 8
5 9 13 15 12 7 7 11 19 21 8 11 14 16 17 19 19 23 21 20 20 16 17 17 15 13 12 10 8 6 5 5 4 3 3 3 3 4 4 4 5 5 6 8 7 7 7 7 7
6 6 11 1 10 5 9 19 12 11 10 14 17 16 17 20 23 20 20 21 20 18 19 16 13 13 12 10 8 6 6 5 4 3 3 3 3 4 4 4 5 5 5 6 6 7 8 7 8
10 12 15 16 14 5 14 15 8 3 9 16 18 18 18 19 20 20 20 20 20 20 19 18 16 15 14 11 8 7 7 5 4 3 2 3 3 4 3 3 4 6 6 7 7 7 8 8 8
16 18 17 16 10 14 14 21 21 19 19 21 22 22 21 20 21 19 20 18 19 19 18 18 14 15 14 8 7 6 5 5 4 4 3 3 2 1 2 3 4 5 5 6 6 8 8 8 9
22 21 23 24 9 10 19 22 22 21 21 23 23 22 20 20 16 16 18 17 17 17 18 19 17 16 12 9 8 7 7 7 6 5 4 4 2 1 3 4 5 5 6 8 8 8 10 7 8
19 21 26 22 11 7 16 23 20 22 25 24 23 22 18 16 13 15 18 17 18 18 18 18 18 17 14 9 8 6 7 6 5 5 5 5 4 4 4 6 6 6 6 9 8 7 7 7 5
19 21 21 21 14 13 14 20 17 15 16 18 20 19 16 15 13 16 19 20 19 20 20 18 17 17 15 13 8 6 4 3 6 6 6 6 6 5 7 7 6 6 7 7 8 7 8 7 6
20 14 19 20 11 15 2 17 14 14 16 13 19 17 15 11 10 14 18 19 21 19 17 19 18 18 15 15 11 12 8 7 7 5 4 4 6 7 7 6 6 7 6 8 7 6 7 7 8
11 3 5 9 14 18 15 17 14 7 9 12 18 18 12 8 11 15 17 18 19 18 18 18 18 17 16 16 14 11 10 6 5 5 6 6 6 7 6 6 6 7 6 8 8 8 8 7 8
6 3 4 5 6 14 19 20 7 7 7 7 12 13 7 7 11 13 14 15 16 16 16 17 18 17 17 16 16 14 12 9 7 7 6 6 5 4 6 6 6 7 8 9 8 8 10 9 9
9 7 7 10 8 19 13 14 16 9 11 14 21 17 6 9 12 14 15 15 15 18 18 16 19 20 18 17 17 15 13 12 12 9 7 7 5 5 6 6 6 7 8 9 9 10 10 10 10
15 12 7 14 15 25 4 15 11 15 15 14 13 5 6 10 11 13 15 15 16 16 18 19 20 20 20 18 17 14 13 9 8 9 7 6 6 6 6 5 7 9 10 9 10 8 8 10 9
10 9 4 10 1 10 14 25 18 7 11 12 8 6 11 12 12 13 15 16 15 17 21 21 20 19 20 19 16 16 14 13 11 10 9 7 7 6 6 7 9 9 10 11 11 8 11 11 10
6 2 6 6 7 18 31 24 18 12 16 11 6 10 11 9 13 12 14 15 15 15 16 18 19 20 18 18 16 14 14 12 10 10 10 9 8 7 7 8 10 10 10 10 11 9 11 12 9
8 8 7 5 10 14 22 13 6 10 8 6 7 8 9 9 9 11 12 12 14 14 16 17 18 20 19 18 17 15 14 13 11 10 9 8 8 7 8 9 9 10 10 10 11 12 13 14 14
14 20 21 13 17 10 16 32 2 8 8 4 7 6 6 6 9 12 13 13 14 15 15 17 17 19 19 17 16 15 14 12 11 11 10 9 9 8 8 8 9 10 10 10 11 12 12 14 14
Wind_Direction
184 218 264 242 244 232 228 190 69 160 165 98 237 171 266 1 307 9 122 107 113 90 79 75 49 59 61 47 50 53 52 49 51 52 55 53 46 39 35 31 21 17 12 7 357 352 353 358 357
207 227 233 275 255 249 121 137 187 173 90 148 149 216 248 220 88 119 149 127 103 90 80 67 58 66 68 66 66 62 58 56 52 48 46 45 49 38 34 32 27 18 15 10 9 7 6 0 354
248 259 260 242 266 278 358 168 166 120 140 172 173 266 330 64 115 141 101 134 128 107 91 79 73 74 78 80 78 73 70 69 65 61 61 53 46 41 39 37 31 25 20 9 1 360 6 3 355
231 199 231 250 260 296 308 168 137 147 154 215 241 205 134 38 144 125 138 145 125 120 111 91 82 81 84 83 80 78 78 76 74 72 69 61 52 44 35 32 28 21 15 8 6 359 355 352 351
232 256 256 244 275 290 240 296 164 177 163 175 196 201 182 153 110 136 148 148 146 132 116 99 90 88 85 82 83 81 77 73 73 72 69 62 51 44 35 30 26 18 12 6 10 5 360 355 356
244 276 251 260 290 167 236 187 192 200 178 129 207 248 206 135 166 162 159 153 148 137 127 119 95 89 87 85 85 82 79 78 74 68 63 60 53 46 41 33 27 20 13 5 7 359 354 350 350
259 266 275 293 280 245 221 181 203 214 207 203 324 236 91 172 178 163 166 156 152 146 151 148 130 106 86 79 83 83 78 73 65 59 56 55 50 48 39 34 24 21 14 6 2 355 347 342 341
277 269 277 250 272 266 161 186 257 226 237 88 177 235 231 180 166 170 167 170 168 162 160 152 148 149 128 110 89 89 86 81 73 68 65 45 78 43 45 27 20 17 11 5 1 353 348 342 330
255 256 262 271 258 3 140 210 176 4 241 205 196 266 59 145 159 173 180 183 181 181 178 171 169 158 141 128 118 114 105 101 109 116 57 85 46 32 31 41 16 11 7 359 356 354 349 340 329
241 257 290 343 273 265 187 229 199 216 215 228 230 219 162 157 176 186 192 195 194 191 186 179 175 168 159 153 153 133 132 92 76 57 44 35 39 34 11 33 12 6 8 356 356 354 345 353 346
189 252 358 258 251 261 247 230 215 225 245 224 234 222 185 185 192 202 203 203 198 194 187 185 179 173 172 160 168 170 158 152 102 61 38 39 38 24 21 12 7 360 12 4 355 351 355 344 339
256 242 251 319 233 242 239 269 230 228 239 68 294 258 173 198 204 208 209 207 198 196 189 186 182 180 176 167 190 167 159 162 127 84 47 45 41 28 17 13 3 359 1 353 348 347 341 340 335
246 278 253 244 223 239 259 244 250 257 246 257 211 219 196 205 213 213 214 210 202 199 192 189 183 182 175 189 178 174 161 180 144 136 72 39 48 30 13 11 0 356 354 351 343 342 337 336 335
359 282 269 254 245 235 232 255 239 251 249 242 229 225 222 213 214 212 211 209 204 196 197 189 189 187 179 186 184 178 175 163 172 136 93 76 39 32 15 11 357 352 355 344 331 334 333 323 323
283 281 271 245 241 243 209 248 236 251 221 230 234 231 227 224 217 216 209 210 202 198 193 193 189 187 183 184 182 180 175 180 167 145 157 104 51 31 10 4 352 357 342 326 323 323 321 319 316
258 252 270 210 179 190 199 267 243 236 189 231 243 237 232 227 222 217 211 206 201 196 194 190 190 185 186 185 182 183 176 182 171 176 178 147 67 32 8 2 354 347 317 321 324 326 324 322 317
205 268 271 266 189 154 209 265 288 169 232 255 257 252 234 232 229 223 215 204 200 197 192 189 189 188 188 185 184 182 180 190 182 195 194 120 60 31 359 348 326 327 321 319 318 320 314 311 306
282 287 274 262 188 215 230 249 271 274 262 269 262 263 257 241 226 219 219 207 199 195 194 190 188 190 186 178 187 182 178 195 191 207 183 153 110 39 336 318 303 292 292 289 289 293 303 307 310
275 283 277 272 264 218 242 257 265 272 273 272 270 270 256 252 238 206 209 203 196 194 193 194 192 191 184 183 184 189 198 196 196 193 166 168 141 279 274 273 273 279 279 289 294 301 311 312 323
262 265 267 272 277 208 269 269 268 265 266 272 273 269 268 263 209 202 201 195 195 192 195 194 195 193 191 188 188 198 193 195 197 172 171 179 191 219 246 255 265 272 287 288 287 295 304 311 323
248 251 260 266 282 222 273 273 259 249 256 260 265 260 268 255 222 199 196 192 194 199 196 195 195 194 191 193 182 178 167 192 191 195 195 188 199 216 234 248 263 281 281 289 302 300 304 300 307
263 268 253 269 277 270 90 286 275 289 261 240 269 274 261 221 208 197 192 193 197 199 194 196 196 195 192 186 184 192 200 198 200 180 163 193 213 231 235 247 261 272 282 282 286 289 288 293 293
241 334 263 261 259 278 259 267 274 178 260 241 246 261 266 191 200 197 189 193 198 194 195 194 196 197 190 189 190 190 203 202 171 179 204 225 233 236 249 257 270 275 275 272 277 283 280 278 279
119 240 234 227 258 253 254 245 276 216 208 232 251 248 261 183 185 197 188 188 194 189 194 194 194 196 193 193 195 196 195 190 187 196 209 217 222 241 245 249 256 265 270 272 279 283 279 274 273
204 218 269 250 223 264 270 258 258 256 227 242 260 264 141 174 185 184 183 188 191 191 193 196 197 196 194 194 195 198 196 193 198 201 210 222 231 237 244 251 266 278 283 288 286 280 274 272 268
198 215 219 271 268 283 103 262 262 234 237 240 248 229 188 193 190 188 190 191 194 192 192 199 202 198 191 192 193 193 192 191 199 203 203 214 232 248 261 275 276 272 278 283 277 273 274 277 276
161 204 272 273 178 275 263 266 264 168 198 226 227 219 228 208 194 196 196 198 196 194 197 198 202 202 195 191 190 191 189 191 191 195 201 213 224 239 252 261 268 273 271 275 280 281 283 283 283
241 51 196 194 264 262 281 280 275 238 227 215 236 238 250 212 203 204 206 201 199 198 199 200 201 200 195 193 191 188 183 185 189 189 198 208 216 225 243 252 258 264 271 277 279 280 277 279 274
184 224 220 301 235 252 275 279 89 98 96 159 223 237 243 216 206 211 209 205 205 201 198 201 201 196 197 191 188 183 180 183 184 192 199 204 214 222 234 247 262 270 272 276 277 275 278 279 280
258 235 218 221 231 230 249 273 118 112 113 190 218 221 239 217 226 221 209 202 199 206 201 200 199 200 197 190 186 182 173 174 184 191 196 196 210 219 234 244 257 263 268 270 271 278 279 280 279